Content
SEND FEEDBACK

Daily
Averages
Monthly
Summary
United States of America

WILMINGTON, NORTH CAROLINA


Home > North America > United States > North Carolina
Elevation: 72 feet     Latitude: 34 16N     Longitude: 077 54W

WEATHER
 
SELECT A DAY
Number of Records: 213,154;   Date Range: 1/1/95 - 11/21/14
 
SHARE

PRINT THIS DATA

[ ← Previous Day ]
WEATHER ALMANAC - SEPTEMBER 14, 2013
[ Next Day → ]
[ °C ]   °F
Weather ElementAverageHighLow
Temperature73.2 °F81 °F (1:53 pm)66.9 °F (7:53 am)
Dewpoint62.3 °F64.9 °F (1:53 am)57 °F (8:53 am)
Humidity69.7 %84 % (2:53 am)52 % (1:53 pm)
Barometer29.98 in30.11 in (11:53 pm)29.83 in (1:53 am)
Wind Speed9.2 mph16.1 mph (9:53 am)
Wind Gust23 mph (9:53 am)
Weather ElementAverage
Visibility10 mi
Wind DirectionNE (42.2 °)

Weather ElementTotal
Precipitation---
Cooling Degree Days9 (Base 65)
Growing Degree Days24 (Base 50)
Averaged from 23 records on September 14, 2013
WEATHER CONDITIONS BREAKOUT
WIND DIRECTION BREAKOUT
WEATHER BY HOUR - SEPTEMBER 14, 2013
[ °C ]   °F
Local TimeTemperatureDewpointHumidityBarometerVisibilityWind DirectionWind SpeedGust SpeedPrecipitationEventsConditions
1:53 AM71.1 °F64.9 °F81 %29.83 in10.0 miNNE (30°)10.4 mphClear
2:53 AM70.0 °F64.9 °F84 %29.84 in10.0 miNNE (20°)5.8 mphPartly Cloudy
3:53 AM69.1 °F64.0 °F84 %29.85 in10.0 miNNE (30°)9.2 mphScattered Clouds
4:53 AM70.0 °F64.0 °F81 %29.87 in10.0 miNorth (360°)5.8 mphMostly Cloudy
5:53 AM69.1 °F64.0 °F84 %29.88 in10.0 miNNE (20°)6.9 mphScattered Clouds
6:53 AM68.0 °F63.0 °F84 %29.91 in10.0 miNNE (30°)9.2 mphPartly Cloudy
7:53 AM66.9 °F60.1 °F79 %29.94 in10.0 miNorth (10°)8.1 mphClear
8:53 AM69.1 °F57.0 °F65 %29.95 in10.0 miNNE (20°)15.0 mph21.9 mphPartly Cloudy
9:53 AM71.1 °F57.0 °F61 %29.97 in10.0 miNNE (20°)16.1 mph23.0 mphClear
10:53 AM73.9 °F59.0 °F59 %29.99 in10.0 miNNE (20°)15.0 mphClear
11:53 AM77.0 °F60.1 °F56 %29.99 in10.0 miNNE (20°)15.0 mph20.7 mphClear
12:53 PM80.1 °F62.1 °F54 %30.00 in10.0 miNNE (20°)6.9 mphPartly Cloudy
1:53 PM81.0 °F62.1 °F52 %30.00 in10.0 miNorth (10°)12.7 mphScattered Clouds
2:53 PM80.1 °F62.1 °F54 %30.00 in10.0 miNNE (20°)6.9 mphMostly Cloudy
3:53 PM80.1 °F63.0 °F56 %29.99 in10.0 miNE (40°)9.2 mphScattered Clouds
4:53 PM81.0 °F63.0 °F54 %30.00 in10.0 miNE (40°)10.4 mphMostly Cloudy
5:53 PM79.0 °F63.0 °F58 %30.01 in10.0 miNNE (20°)9.2 mphPartly Cloudy
6:53 PM75.9 °F63.0 °F64 %30.03 in10.0 miNE (40°)6.9 mphClear
7:53 PM73.0 °F64.0 °F73 %30.05 in10.0 miNE (40°)5.8 mphOvercast
8:53 PM72.0 °F63.0 °F73 %30.07 in10.0 miNE (40°)5.8 mphMostly Cloudy
9:53 PM70.0 °F63.0 °F78 %30.09 in10.0 miNE (40°)4.6 mphScattered Clouds
10:53 PM69.1 °F64.0 °F84 %30.10 in10.0 miNE (40°)9.2 mphClear
11:53 PM68.0 °F63.0 °F84 %30.11 in10.0 miNE (40°)6.9 mphClear
Hourly data recorded from KILM, located miles away from Wilmington, North Carolina







STORIES FROM OUR PARTNERS